Location: Santa Giusta
(39.8800°N, 8.6069°E)
Time: 16:57:19
(UTC+00:00)

CZ-4 R/B - Pass Details

Date: 02 February 2023
Orbit: 526 x 586 km, 97.7° (Epoch: 31 March)

Event Time Altitude Azimuth Distance (km) Brightness Sun altitude
Rises 19:34:24 0° 203° (SSW) 2,804 5.1 -32.6°
Reaches altitude 10° 19:37:09 10° 223° (SW) 1,904 4.4 -33.1°
Maximum altitude 19:39:59 18° 266° (W) 1,454 4.1 -33.6°
Drops below altitude 10° 19:42:50 10° 310° (NW) 1,896 4.6 -34.2°
Sets 19:45:34 0° 330° (NNW) 2,789 5.4 -34.7°
